FW6147 Weather Reports


time (UTC)temp
C
wind
direction
speed
KPH
gust
KPH
rain 1hr
cm
rain 24hr
cm
rain mn
cm
humidity
%
barometer
mb
20260503235056 26 0 0.0 9.7 0.00 0.00 0.00 24 1015.5
20260503234557 26 238 1.6 9.7 0.00 0.00 0.00 24 1015.5
20260503234054 26 238 0.0 8.0 0.00 0.00 0.00 24 1015.5
20260503233555 26 0 0.0 9.7 0.00 0.00 0.00 24 1015.5
20260503233057 26 229 0.0 24.1 0.00 0.00 0.00 23 1015.4
20260503232553 26 224 0.0 24.1 0.00 0.00 0.00 23 1015.5
20260503232052 26 0 11.3 24.1 0.00 0.00 0.00 24 1015.6
20260503231556 26 0 0.0 20.9 0.00 0.00 0.00 23 1015.6
20260503231055 26 174 12.9 25.7 0.00 0.00 0.00 23 1015.7
20260503230555 26 159 14.5 25.7 0.00 0.00 0.00 22 1015.6
20260503230104 26 191 14.5 25.7 0.00 0.00 0.00 22 1015.6
20260503225554 26 172 6.4 24.1 0.00 0.00 0.00 26 1015.8
20260503225055 26 158 14.5 24.1 0.00 0.00 0.00 27 1015.7
20260503224602 26 166 16.1 24.1 0.00 0.00 0.00 28 1015.7
20260503224055 26 176 8.0 29.0 0.00 0.00 0.00 27 1015.7
20260503223554 26 165 1.6 29.0 0.00 0.00 0.00 26 1015.8
20260503223058 26 174 9.7 29.0 0.00 0.00 0.00 26 1015.9
20260503222554 26 195 16.1 22.5 0.00 0.00 0.00 27 1015.9
20260503222054 26 152 11.3 22.5 0.00 0.00 0.00 27 1015.9
20260503221556 26 186 6.4 43.5 0.00 0.00 0.00 27 1015.9
20260503221055 26 143 11.3 43.5 0.00 0.00 0.00 27 1015.9
20260503220555 26 139 4.8 33.8 0.00 0.00 0.00 28 1016.1
20260503220120 26 145 3.2 33.8 0.00 0.00 0.00 29 1016.3
20260503215554 26 180 8.0 25.7 0.00 0.00 0.00 30 1016.3
20260503215056 26 172 9.7 27.4 0.00 0.00 0.00 30 1016.4
20260503214559 26 158 12.9 27.4 0.00 0.00 0.00 29 1016.4
20260503214054 26 153 14.5 27.4 0.00 0.00 0.00 30 1016.6
20260503213555 26 169 9.7 20.9 0.00 0.00 0.00 30 1016.7
20260503213059 26 182 11.3 20.9 0.00 0.00 0.00 29 1016.7
20260503212555 26 0 1.6 25.7 0.00 0.00 0.00 31 1016.8
20260503212055 26 167 4.8 25.7 0.00 0.00 0.00 31 1017.0
20260503211556 25 174 16.1 27.4 0.00 0.00 0.00 30 1017.1
20260503211055 26 131 17.7 27.4 0.00 0.00 0.00 30 1017.2
20260503210555 25 147 8.0 25.7 0.00 0.00 0.00 29 1017.2
20260503210059 26 0 6.4 27.4 0.00 0.00 0.00 29 1017.3
20260503205555 26 131 3.2 29.0 0.00 0.00 0.00 30 1017.4
20260503205053 26 193 20.9 29.0 0.00 0.00 0.00 29 1017.4
20260503204603 26 174 16.1 29.0 0.00 0.00 0.00 29 1017.3
20260503204055 26 150 8.0 29.0 0.00 0.00 0.00 30 1017.6
20260503203552 26 153 9.7 27.4 0.00 0.00 0.00 30 1017.8
20260503203057 26 142 14.5 27.4 0.00 0.00 0.00 29 1018.0
20260503202555 26 142 11.3 27.4 0.00 0.00 0.00 31 1018.1
20260503202055 25 115 6.4 30.6 0.00 0.00 0.00 30 1018.0
20260503201553 25 161 17.7 30.6 0.00 0.00 0.00 30 1018.2
20260503201058 25 136 9.7 24.1 0.00 0.00 0.00 31 1018.1
20260503200555 25 134 14.5 24.1 0.00 0.00 0.00 32 1018.3
20260503200056 25 135 11.3 22.5 0.00 0.00 0.00 33 1018.3
20260503195554 25 139 14.5 22.5 0.00 0.00 0.00 33 1018.4
20260503195055 25 0 4.8 17.7 0.00 0.00 0.00 35 1018.5
20260503194602 25 156 6.4 20.9 0.00 0.00 0.00 36 1018.5
20260503194055 25 100 9.7 20.9 0.00 0.00 0.00 37 1018.5
20260503193554 24 112 9.7 19.3 0.00 0.00 0.00 36 1018.4
20260503193054 24 129 12.9 20.9 0.00 0.00 0.00 36 1018.5
20260503192554 23 129 14.5 20.9 0.00 0.00 0.00 37 1018.7
20260503192055 23 157 12.9 20.9 0.00 0.00 0.00 37 1018.9
20260503191553 23 137 12.9 19.3 0.00 0.00 0.00 37 1018.8
20260503191055 23 146 9.7 17.7 0.00 0.00 0.00 38 1019.0
20260503190556 23 131 11.3 19.3 0.00 0.00 0.00 38 1019.2
20260503190055 23 162 12.9 19.3 0.00 0.00 0.00 38 1019.4
20260503185555 23 116 8.0 17.7 0.00 0.00 0.00 39 1019.4
20260503185057 23 148 11.3 19.3 0.00 0.00 0.00 39 1019.5
20260503184603 22 115 4.8 19.3 0.00 0.00 0.00 40 1019.6
20260503184055 23 138 8.0 14.5 0.00 0.00 0.00 40 1019.7
20260503183553 22 143 4.8 16.1 0.00 0.00 0.00 41 1019.8
20260503183055 22 132 9.7 16.1 0.00 0.00 0.00 42 1019.7
20260503182557 22 0 8.0 16.1 0.00 0.00 0.00 41 1019.7
20260503182055 22 82 3.2 17.7 0.00 0.00 0.00 42 1019.9
20260503181553 22 139 8.0 17.7 0.00 0.00 0.00 41 1020.1
20260503181056 22 95 4.8 12.9 0.00 0.00 0.00 42 1020.3
20260503180555 22 181 8.0 17.7 0.00 0.00 0.00 41 1020.4
20260503180116 22 0 6.4 17.7 0.00 0.00 0.00 42 1020.3
20260503175555 21 122 1.6 16.1 0.00 0.00 0.00 43 1020.6
20260503175054 21 0 1.6 12.9 0.00 0.00 0.00 43 1020.6
20260503174556 21 171 1.6 12.9 0.00 0.00 0.00 44 1020.7
20260503174059 21 0 6.4 12.9 0.00 0.00 0.00 43 1020.6
20260503173555 21 0 4.8 9.7 0.00 0.00 0.00 44 1020.8
20260503173112 21 0 0.0 9.7 0.00 0.00 0.00 46 1020.7
20260503172556 20 57 0.0 9.7 0.00 0.00 0.00 47 1020.7
20260503172055 20 150 0.0 6.4 0.00 0.00 0.00 48 1020.9
20260503171600 20 0 1.6 6.4 0.00 0.00 0.00 48 1020.8
20260503171055 20 0 0.0 0.0 0.00 0.00 0.00 48 1020.7
20260503170555 19 0 0.0 0.0 0.00 0.00 0.00 48 1020.8
20260503160111 17 0 0.0 0.0 0.00 0.00 0.00 58 1020.4
20260503150555 15 0 0.0 6.4 0.00 0.00 0.00 65 1020.2
20260503131055 12 0 0.0 0.0 0.00 0.00 0.00 80 1019.8
20260503130555 12 0 0.0 0.0 0.00 0.00 0.00 80 1019.8
20260503110556 12 0 0.0 0.0 0.00 0.00 0.00 80 1019.3
20260503081556 12 0 0.0 0.0 0.00 0.00 0.00 81 1020.2
20260503081058 12 0 0.0 0.0 0.00 0.00 0.00 81 1020.2
20260503080558 12 0 0.0 0.0 0.00 0.00 0.00 81 1020.3
20260503072555 12 0 0.0 0.0 0.00 0.00 0.00 79 1020.6
20260503072054 12 0 0.0 0.0 0.00 0.00 0.00 79 1020.5
20260503071558 12 0 0.0 0.0 0.00 0.00 0.00 79 1020.4
20260503071054 12 0 0.0 0.0 0.00 0.00 0.00 79 1020.5
20260503070554 13 0 0.0 0.0 0.00 0.00 0.00 78 1020.4
20260503060115 15 0 0.0 0.0 0.00 0.00 0.00 69 1020.0
20260503055055 15 0 0.0 0.0 0.00 0.00 0.00 69 1020.1
20260503054620 15 0 0.0 0.0 0.00 0.00 0.00 68 1020.1
20260503054057 15 0 0.0 0.0 0.00 0.00 0.00 68 1020.2
20260503053556 15 0 0.0 0.0 0.00 0.00 0.00 67 1020.3
20260503053055 15 0 0.0 0.0 0.00 0.00 0.00 67 1020.1
20260503052555 15 0 0.0 0.0 0.00 0.00 0.00 66 1020.0
20260503052056 15 0 0.0 0.0 0.00 0.00 0.00 65 1019.9
20260503051604 16 0 0.0 0.0 0.00 0.00 0.00 62 1019.9
20260503051056 16 0 0.0 0.0 0.00 0.00 0.00 60 1019.8
20260503050556 16 0 0.0 0.0 0.00 0.00 0.00 57 1019.9
20260503050056 16 0 0.0 0.0 0.00 0.00 0.00 59 1019.8
20260503045556 17 0 0.0 0.0 0.00 0.00 0.00 57 1019.7
20260503045055 17 0 0.0 0.0 0.00 0.00 0.00 55 1019.6
20260503044556 17 0 0.0 0.0 0.00 0.00 0.00 55 1019.5
20260503044055 17 0 0.0 0.0 0.00 0.00 0.00 55 1019.4
20260503043556 16 0 0.0 9.7 0.00 0.00 0.00 56 1019.5
20260503043101 17 0 0.0 9.7 0.00 0.00 0.00 56 1019.5
20260503042556 17 133 0.0 9.7 0.00 0.00 0.00 55 1019.4
20260503042056 17 0 0.0 0.0 0.00 0.00 0.00 55 1019.6
20260503041556 16 0 0.0 0.0 0.00 0.00 0.00 57 1019.5
20260503041052 16 0 0.0 0.0 0.00 0.00 0.00 57 1019.5
20260503040553 16 0 0.0 0.0 0.00 0.00 0.00 59 1019.5
20260503035555 16 0 0.0 0.0 0.00 0.00 0.00 59 1019.5
20260503035056 17 0 0.0 0.0 0.00 0.00 0.00 58 1019.3
20260503034559 17 0 0.0 0.0 0.00 0.00 0.00 56 1019.3
20260503034059 17 0 0.0 0.0 0.00 0.00 0.00 54 1019.2
20260503033555 17 0 0.0 0.0 0.00 0.00 0.00 55 1019.1
20260503033055 17 0 0.0 0.0 0.00 0.00 0.00 51 1019.0
20260503032555 17 0 0.0 6.4 0.00 0.00 0.00 51 1019.0
20260503032055 18 0 0.0 6.4 0.00 0.00 0.00 51 1019.0
20260503031559 18 0 0.0 6.4 0.00 0.00 0.00 49 1019.0
20260503031053 18 0 0.0 6.4 0.00 0.00 0.00 49 1019.0
20260503030554 18 0 0.0 8.0 0.00 0.00 0.00 48 1019.0
20260503030104 18 0 0.0 9.7 0.00 0.00 0.00 48 1018.8
20260503025555 18 0 3.2 9.7 0.00 0.00 0.00 48 1018.7
20260503025055 18 91 4.8 9.7 0.00 0.00 0.00 48 1018.7
20260503024557 18 91 4.8 9.7 0.00 0.00 0.00 48 1018.7
20260503024055 18 90 3.2 9.7 0.00 0.00 0.00 49 1018.7
20260503023556 18 90 4.8 9.7 0.00 0.00 0.00 49 1018.7
20260503023103 18 0 0.0 11.3 0.00 0.00 0.00 50 1018.6
20260503022555 18 74 1.6 11.3 0.00 0.00 0.00 50 1018.6
20260503022056 18 0 0.0 9.7 0.00 0.00 0.00 51 1018.6
20260503021601 18 0 0.0 9.7 0.00 0.00 0.00 49 1018.7
20260503021055 19 72 1.6 8.0 0.00 0.00 0.00 48 1018.5
20260503020555 19 0 0.0 9.7 0.00 0.00 0.00 49 1018.6
20260503020101 20 61 4.8 9.7 0.00 0.00 0.00 46 1018.4
20260503015554 20 65 3.2 12.9 0.00 0.00 0.00 46 1018.4
20260503015054 20 0 4.8 12.9 0.00 0.00 0.00 45 1018.3
20260503014600 20 57 0.0 3.2 0.00 0.00 0.00 44 1018.4
20260503014055 20 0 0.0 6.4 0.00 0.00 0.00 43 1018.5
20260503013559 20 0 0.0 6.4 0.00 0.00 0.00 43 1018.3
20260503013056 21 0 0.0 12.9 0.00 0.00 0.00 44 1018.4
20260503012555 21 0 1.6 12.9 0.00 0.00 0.00 41 1018.4
20260503012054 21 58 4.8 11.3 0.00 0.00 0.00 41 1018.3
20260503011559 21 0 0.0 11.3 0.00 0.00 0.00 41 1018.3
20260503011059 21 0 4.8 11.3 0.00 0.00 0.00 39 1018.3
20260503010556 22 54 4.8 11.3 0.00 0.00 0.00 36 1018.3
20260503005555 22 0 4.8 11.3 0.00 0.00 0.00 32 1018.2
20260503005055 23 73 0.0 8.0 0.00 0.00 0.00 35 1018.1
20260503004607 23 0 0.0 8.0 0.00 0.00 0.00 34 1018.1
20260503004055 23 0 1.6 14.5 0.00 0.00 0.00 31 1018.1
20260503003555 23 103 3.2 14.5 0.00 0.00 0.00 30 1018.0
20260503003106 23 135 0.0 14.5 0.00 0.00 0.00 31 1018.0
20260503002555 23 143 3.2 12.9 0.00 0.00 0.00 30 1018.0
20260503002055 23 0 3.2 12.9 0.00 0.00 0.00 29 1018.0
20260503001617 23 0 4.8 9.7 0.00 0.00 0.00 28 1018.1
20260503001055 23 0 0.0 12.9 0.00 0.00 0.00 30 1018.0
20260503000554 23 0 0.0 12.9 0.00 0.00 0.00 31 1018.0
20260503000053 23 0 1.6 14.5 0.00 0.00 0.00 30 1018.0
20260502235555 23 146 3.2 16.1 0.00 0.00 0.00 30 1018.0